Theta_e
319 320 320 320 318 319 319 318 327 327 322 320 315 317 319 320 321 321 321 322 325 324 324 325 324 319 321 323 323 321 317 314 318 318 319 322 323 325 322 323 327 326 339 345
319 320 320 319 317 315 315 316 319 329 322 320 317 317 321 321 321 321 321 324 323 322 323 324 327 327 325 322 322 320 319 316 320 320 319 321 324 324 322 321 322 332 335 343
319 320 320 319 318 315 315 317 328 327 318 316 322 321 322 324 325 324 322 324 322 321 321 323 327 334 333 323 321 336 325 315 318 321 320 325 333 332 329 323 325 331 331 345
319 319 319 318 317 316 316 319 329 331 332 327 327 327 326 331 330 329 323 324 323 322 323 323 337 338 335 334 335 323 317 319 319 319 320 328 331 332 333 330 325 333 334 338
318 319 318 317 317 318 319 325 327 324 325 325 325 326 331 334 334 334 334 331 332 321 323 324 336 339 337 338 333 329 315 320 321 324 327 328 332 332 333 332 332 329 335 339
318 318 317 316 316 318 319 324 326 323 325 326 327 327 330 334 332 332 332 331 332 337 337 336 334 333 331 330 332 330 321 318 318 320 323 329 332 340 339 340 339 336 337 337
318 316 316 315 314 314 315 320 322 325 329 329 330 330 331 334 332 333 332 333 334 334 330 333 332 333 332 334 332 329 332 318 319 321 324 328 329 337 340 342 341 339 339 338
317 315 315 315 314 313 314 316 321 325 328 329 331 331 331 329 329 333 334 334 333 327 334 341 340 336 334 340 336 333 333 332 331 324 323 331 340 338 337 338 342 340 342 340
315 315 314 313 314 314 315 319 321 322 327 326 329 330 330 328 327 330 335 332 327 330 332 334 345 348 346 347 340 334 334 335 336 341 341 338 343 338 338 335 342 339 341 344
314 314 313 312 313 314 314 318 322 324 326 324 327 328 329 327 328 333 333 330 332 332 335 338 344 345 344 347 345 342 341 338 341 340 339 343 338 336 336 334 331 338 339 342
312 312 311 312 313 313 314 318 320 323 323 323 325 325 327 326 327 331 330 331 333 339 340 341 340 341 341 344 342 343 340 343 344 341 344 344 340 339 344 339 339 336 341 334
309 310 310 310 311 311 313 317 318 319 320 322 325 324 324 324 324 325 328 333 334 337 338 338 339 344 338 338 340 339 348 343 343 340 346 343 341 340 340 338 339 338 337 335
308 308 309 308 308 308 308 310 314 318 319 321 322 324 326 326 326 325 323 327 334 333 333 336 336 337 337 341 341 339 337 338 343 340 337 340 333 337 340 340 339 339 338 338
306 306 306 306 306 305 304 305 312 313 317 324 324 326 323 326 327 326 326 322 332 332 333 334 338 339 335 335 336 338 337 337 338 341 342 339 332 338 340 341 341 338 336 340
302 303 303 303 303 304 305 310 315 314 317 323 322 323 327 328 328 327 326 322 325 332 336 337 338 336 336 334 332 335 336 337 335 338 336 335 332 337 339 337 337 341 337 340
301 301 301 301 301 302 310 318 319 317 319 321 325 323 325 328 326 323 323 322 322 327 333 337 336 332 333 334 334 333 335 335 336 335 330 333 333 333 334 337 338 340 338 339
301 301 300 300 301 302 307 318 320 318 321 322 327 328 326 328 323 320 321 322 323 325 329 332 333 333 329 330 334 333 334 335 335 331 329 332 332 337 332 334 338 337 335 336
300 300 300 302 303 303 308 317 318 313 314 318 328 330 328 324 322 323 319 325 325 326 327 329 332 329 329 334 331 334 333 333 333 334 332 329 331 331 333 336 335 335 335 334
300 301 303 304 308 310 320 321 321 316 320 325 328 333 335 326 325 321 323 325 329 324 327 329 329 334 340 338 331 333 333 333 332 333 333 332 333 332 333 334 333 333 333 332
303 304 308 313 318 320 319 319 318 317 317 317 324 324 329 326 327 330 330 324 325 330 325 323 336 340 334 333 333 330 329 330 334 336 338 333 334 335 335 334 334 333 332 332
308 310 314 316 319 320 320 325 325 324 327 323 324 324 327 324 329 330 330 333 330 333 333 328 334 337 334 332 332 331 331 333 333 333 332 332 333 335 334 334 333 332 331 330
303 304 307 312 318 322 328 327 327 329 331 327 327 326 324 326 327 333 333 332 328 335 330 334 340 337 331 329 329 329 329 329 331 330 331 332 333 332 331 331 333 332 332 332
310 312 317 323 322 326 332 332 331 330 328 329 327 327 326 326 328 331 330 331 334 332 333 333 334 334 329 327 328 329 329 331 329 327 327 327 327 328 328 329 332 331 330 330
311 319 318 324 327 327 327 328 330 327 330 332 330 331 329 326 325 330 333 328 332 336 338 336 336 329 328 327 326 330 332 331 330 328 327 326 325 326 326 327 327 327 328 329
313 318 320 324 325 324 326 326 330 331 329 330 330 330 333 332 331 330 331 335 336 336 336 335 329 327 328 330 332 331 330 328 325 325 325 325 327 325 325 326 326 325 325 326
311 315 319 321 325 327 328 328 331 327 331 329 329 332 331 336 334 335 335 334 335 335 333 333 329 327 326 326 328 329 327 325 324 325 326 326 324 324 324 326 326 324 321 319
315 319 318 319 322 327 327 328 327 328 332 330 330 333 335 330 335 337 336 336 334 334 332 329 327 325 325 323 325 326 325 326 327 324 323 320 316 318 320 316 313 312 310 310
Wind_Speed
18 20 21 25 30 36 21 7 2 12 29 3 1 3 5 5 9 4 9 7 3 3 2 4 4 9 10 13 9 9 12 8 8 13 8 6 9 11 7 5 4 2 5 5
16 18 19 23 25 27 13 4 3 4 10 2 2 6 7 6 9 9 7 4 3 4 3 4 4 7 8 12 11 11 7 3 7 11 8 6 3 4 6 5 4 6 6 5
14 16 18 21 22 23 12 2 3 4 4 1 2 4 8 5 5 12 7 6 5 7 8 1 5 6 6 7 9 10 11 4 7 12 8 4 2 3 1 5 3 4 6 6
12 14 17 20 21 22 2 2 3 1 2 3 5 3 6 13 9 3 7 2 4 4 3 7 3 4 8 7 9 3 6 7 6 7 6 4 5 8 4 6 6 7 8 14
10 13 17 19 20 17 2 0 3 4 3 4 5 3 3 7 5 3 4 6 9 4 2 4 3 1 1 2 7 9 8 1 3 3 2 2 5 7 3 2 4 6 13 7
9 12 15 16 19 10 4 5 5 3 4 5 4 3 7 5 4 5 4 5 6 12 7 6 6 2 4 5 6 5 4 4 4 6 5 6 4 3 3 5 1 4 9 7
8 11 13 16 17 17 6 4 4 2 4 2 4 6 9 9 6 4 5 5 2 4 4 3 4 4 9 12 8 2 4 3 3 4 3 0 4 7 7 10 8 9 7 17
7 9 12 14 16 17 13 5 2 1 3 2 8 13 8 8 7 4 3 2 1 5 1 5 7 5 4 6 6 10 7 2 3 3 3 2 3 5 5 5 4 5 10 8
7 9 12 14 16 18 15 3 3 2 1 3 4 5 3 3 4 7 4 4 7 7 2 3 4 3 3 5 8 5 10 8 4 3 4 3 2 8 7 2 5 2 2 8
7 9 12 14 15 16 18 4 4 2 1 5 2 2 3 4 3 1 5 8 9 6 4 4 3 2 2 1 2 5 4 4 4 4 3 1 4 14 4 5 5 2 3 4
8 10 12 14 16 15 18 5 10 5 2 6 5 4 3 3 1 1 4 4 4 5 4 3 2 2 3 3 4 4 4 3 2 2 2 3 6 7 5 5 5 6 3 3
9 9 11 13 15 15 14 5 9 12 4 6 19 27 34 22 22 1 2 5 2 3 3 2 2 2 3 4 2 1 3 6 6 5 4 4 3 6 5 3 4 3 6 5
8 9 10 12 14 15 15 12 13 6 3 6 3 8 16 19 30 27 4 2 5 2 2 3 2 1 2 3 3 3 3 5 4 5 2 1 6 5 6 7 5 6 4 10
9 10 11 13 15 16 17 12 9 5 4 2 6 10 16 13 14 28 29 10 3 8 3 3 2 0 3 3 3 3 4 1 1 4 2 2 7 4 3 4 1 7 11 14
12 13 14 16 17 18 17 18 8 7 1 3 6 23 11 17 14 23 27 15 5 3 3 2 1 2 1 3 2 3 4 7 4 6 8 6 6 8 9 9 14 5 5 10
13 14 15 15 16 16 7 2 2 2 8 0 4 7 7 10 13 12 5 4 3 4 5 4 5 6 5 4 4 4 7 7 5 6 9 2 4 4 10 12 17 12 9 10
14 15 17 17 14 11 4 4 4 3 2 1 4 5 5 7 4 0 2 0 3 4 4 4 4 4 5 3 3 6 12 5 1 4 8 1 7 9 16 14 11 9 10 16
16 18 19 16 12 12 10 4 7 16 4 1 3 5 5 7 1 1 2 1 2 2 4 1 2 2 2 1 5 4 5 5 1 7 8 8 2 15 11 15 13 13 12 12
18 19 17 4 3 3 2 3 1 13 1 1 2 2 3 5 2 2 2 3 1 2 2 2 4 2 5 7 4 3 0 3 5 4 6 7 9 9 8 8 9 12 8 10
16 7 1 2 3 3 2 2 2 2 2 2 3 3 3 2 2 2 0 1 3 2 3 1 4 3 2 17 11 7 7 7 7 4 6 6 9 13 14 13 11 9 8 8
2 1 2 6 4 1 1 2 3 2 3 4 4 6 3 2 1 2 2 1 1 3 3 3 3 3 5 8 17 17 17 11 13 13 12 11 10 14 14 11 10 13 13 9
9 11 9 5 2 1 2 3 3 4 4 3 4 5 5 3 3 3 4 2 3 1 1 4 3 1 3 4 17 17 15 14 11 18 15 15 17 16 14 12 12 10 15 15
2 2 2 1 2 2 4 5 3 3 3 3 2 1 4 2 3 4 3 1 0 0 4 3 2 3 1 3 10 15 10 12 10 11 15 16 16 22 19 13 18 16 12 8
1 1 2 3 3 4 4 2 2 4 2 6 1 2 3 1 3 3 3 3 3 2 3 4 4 5 5 3 3 12 7 8 4 4 13 15 17 16 21 20 18 19 17 15
1 2 2 4 4 4 5 5 0 3 2 3 3 3 2 3 3 2 3 3 2 3 3 3 4 5 4 6 6 8 7 3 5 10 11 13 14 18 20 23 25 26 24 24
2 3 3 4 3 4 4 2 1 3 4 2 3 3 3 4 2 2 0 6 4 3 3 8 5 5 5 6 6 6 7 7 11 14 15 19 20 18 19 22 25 25 27 26
3 4 5 6 5 5 2 3 3 3 3 2 1 3 1 1 3 3 4 1 2 7 8 6 7 6 6 5 7 9 9 10 13 19 22 22 23 23 21 19 20 25 24 26
Wind_Direction
329 330 336 343 345 347 357 348 338 163 150 71 145 185 213 257 281 287 259 217 134 204 206 285 242 225 217 200 184 174 199 163 240 233 255 231 197 192 150 128 248 181 151 254
327 331 338 342 349 354 345 337 268 205 215 143 282 287 280 250 269 267 287 305 67 70 350 322 205 271 268 229 186 180 173 217 243 298 339 356 242 177 155 112 83 192 141 241
330 332 336 340 345 347 342 336 340 320 35 108 119 330 293 260 277 282 226 254 36 24 344 144 302 325 299 279 185 163 100 125 163 227 220 178 319 332 161 135 117 211 206 178
328 333 336 340 342 337 248 175 264 235 309 320 318 218 256 287 289 345 352 298 195 211 326 326 332 340 324 354 5 334 119 172 163 227 210 234 241 241 265 180 201 171 197 170
329 336 342 344 349 347 202 357 27 347 279 308 317 349 338 353 345 331 351 50 341 296 193 204 293 292 260 211 339 7 352 342 117 303 280 346 283 276 286 338 46 273 149 203
334 341 346 354 1 13 360 321 328 107 282 339 15 298 296 316 12 300 89 10 356 55 1 314 304 161 103 52 349 358 35 121 86 269 292 33 349 238 268 91 318 115 160 179
330 345 354 1 11 17 339 305 325 47 286 340 340 319 330 346 321 278 319 47 53 219 304 280 6 40 70 66 20 43 14 88 112 222 32 53 259 7 44 115 54 335 92 144
331 346 353 359 2 1 345 289 343 19 293 354 307 342 334 331 349 324 301 309 247 271 161 58 10 355 95 37 12 2 73 114 74 137 137 256 43 4 2 353 75 297 97 97
342 350 352 355 356 353 354 340 290 293 86 251 336 311 313 321 331 337 297 325 298 22 143 105 131 254 336 339 327 339 50 51 98 22 98 147 296 312 325 42 360 142 133 140
340 346 354 356 353 355 351 290 360 316 243 269 53 279 293 308 349 262 319 339 355 28 30 62 73 12 329 265 330 336 27 11 59 50 65 334 347 309 296 128 232 319 258 198
339 347 352 357 353 360 356 309 41 15 261 276 234 247 242 340 41 103 286 24 354 30 55 85 146 127 232 185 215 167 130 169 122 82 88 19 344 334 80 226 273 241 155 219
341 345 346 348 353 354 360 306 327 339 199 251 289 271 265 248 232 50 353 163 171 180 106 57 114 134 234 186 216 182 181 178 168 150 206 265 316 282 320 74 320 347 147 224
340 337 338 342 344 348 350 319 331 343 304 294 285 241 289 256 232 219 160 283 156 82 155 144 153 221 83 233 248 164 218 178 180 135 105 220 356 318 334 24 353 294 344 225
329 326 329 330 332 331 327 307 284 291 271 282 282 329 303 296 255 210 210 206 110 114 112 96 73 343 117 260 251 163 211 84 85 31 239 231 10 290 249 46 67 339 345 272
321 317 318 320 323 320 315 297 301 213 141 276 285 307 285 311 239 210 214 207 141 131 111 107 253 267 128 251 27 280 202 180 147 206 193 138 222 255 91 2 298 281 224 291
319 329 328 324 323 326 334 359 83 133 201 255 307 292 292 314 212 185 167 190 165 124 161 180 173 234 163 169 200 252 232 224 167 184 135 114 215 172 131 230 246 266 277 219
313 318 320 318 318 314 234 239 131 27 10 101 302 298 269 246 151 151 181 243 220 139 190 187 164 216 148 139 201 207 225 203 228 69 111 358 190 216 214 218 267 192 123 110
311 313 313 306 294 282 285 277 269 224 299 319 272 274 330 7 141 243 181 190 42 267 180 19 141 80 147 258 271 146 195 20 289 168 200 234 236 207 199 191 158 116 113 112
308 309 310 290 211 219 292 305 304 182 153 258 273 251 268 355 316 234 348 111 124 313 122 203 97 301 32 306 326 20 77 198 247 245 160 164 93 74 83 73 60 99 101 106
304 300 323 287 184 272 296 227 47 31 246 233 239 263 272 42 354 308 255 42 181 153 248 33 83 97 66 15 1 326 300 232 210 70 36 48 67 84 80 86 99 99 99 97
12 304 246 310 318 181 217 219 172 190 238 205 230 202 213 279 152 257 52 145 342 65 285 96 41 34 360 339 44 25 14 16 56 80 66 59 88 101 101 86 92 110 123 119
318 301 299 302 302 205 216 211 260 195 236 226 186 216 191 258 153 92 360 6 30 58 346 54 73 319 328 67 69 51 23 346 56 70 77 64 61 71 84 96 106 122 136 161
307 256 261 214 273 143 200 198 239 233 237 276 249 198 172 354 63 69 96 105 107 357 44 123 151 155 264 100 85 83 58 323 355 66 85 93 87 78 81 82 103 127 133 155
292 274 305 212 203 243 205 256 287 263 343 325 278 63 153 198 84 139 92 214 81 78 165 186 159 176 193 184 140 108 121 85 357 38 74 76 81 84 79 78 79 79 72 75
292 279 248 239 249 289 289 269 151 325 289 346 14 24 61 25 88 63 108 137 117 204 192 126 144 159 145 99 95 104 106 95 74 59 59 59 68 67 67 77 85 87 82 76
250 242 287 274 303 322 336 340 8 310 357 325 37 56 56 48 334 351 243 149 186 208 109 131 128 111 114 107 93 91 81 86 74 66 67 82 83 93 88 79 77 77 75 66
247 238 229 243 264 259 272 339 336 313 41 47 29 71 132 262 38 20 6 40 161 123 117 120 130 135 121 109 98 87 82 71 77 84 83 82 81 82 74 67 66 74 69 68